CST,Max TemperatureF,Mean TemperatureF,Min TemperatureF,Max Dew PointF,MeanDew PointF,Min DewpointF,Max Humidity, Mean Humidity, Min Humidity, Max Sea Level PressureIn, Mean Sea Level PressureIn, Min Sea Level PressureIn, Max VisibilityMiles, Mean VisibilityMiles, Min VisibilityMiles, Max Wind SpeedMPH, Mean Wind SpeedMPH, Max Gust SpeedMPH,PrecipitationIn, CloudCover, Events, WindDirDegrees
2014-1-1,19,12,5,14,7,-4,88,75,62,30.38,30.32,30.26,10,5,0,21,13,23,0.13,8,Snow,21
2014-1-2,19,11,3,11,5,-7,84,72,59,30.43,30.29,30.18,10,6,1,20,13,22,0.05,6,Snow,353
2014-1-3,19,8,-4,11,0,-9,79,70,60,30.45,30.21,29.86,10,9,5,26,12,36,0.00,3,Snow,222
2014-1-4,30,22,13,26,21,11,92,80,67,30.07,29.86,29.76,10,6,1,29,14,38,0.03,7,Snow,238
2014-1-5,22,9,-4,10,-1,-15,68,60,51,30.16,30.08,30.01,10,10,4,26,15,35,T,8,Snow,336
2014-1-6,-4,-8,-13,-16,-22,-26,64,57,49,30.23,30.16,30.04,10,10,7,26,17,36,T,2,Snow,278
2014-1-7,1,-6,-14,-9,-15,-22,74,64,53,30.34,30.27,30.21,10,10,10,17,10,22,0.00,2,,250
2014-1-8,11,3,-6,-4,-7,-10,82,66,50,30.56,30.46,30.33,10,10,9,12,4,14,0.00,2,,290
2014-1-9,25,8,-9,22,9,-15,92,80,68,30.57,30.36,30.14,10,6,3,15,5,18,T,5,Snow,179
2014-1-10,39,32,24,37,30,22,100,93,85,30.14,29.86,29.48,10,3,0,20,10,24,0.48,8,Fog-Rain-Snow,176
2014-1-11,38,34,30,37,30,24,100,88,75,29.75,29.52,29.39,10,7,1,22,12,31,0.01,8,Rain,273
2014-1-12,40,33,26,32,27,23,92,78,64,29.82,29.70,29.58,10,9,7,23,12,30,0.00,6,,215
2014-1-13,44,40,35,33,29,20,89,76,62,29.75,29.60,29.52,10,10,10,18,8,24,0.00,4,,252
2014-1-14,35,27,19,31,23,14,92,81,69,29.87,29.66,29.52,10,4,0,26,14,35,0.08,7,Snow,244
2014-1-15,19,16,12,12,8,4,80,74,67,30.07,29.98,29.80,10,9,3,22,12,31,T,5,Snow,267
2014-1-16,33,26,18,31,23,11,92,80,68,29.73,29.53,29.43,10,6,0,23,15,29,0.05,7,Rain-Snow,235
2014-1-17,22,16,10,14,10,2,80,73,66,29.94,29.85,29.70,10,7,2,20,11,26,T,6,Snow,274
2014-1-18,24,16,8,19,12,3,92,81,70,29.92,29.86,29.77,10,6,1,14,5,17,0.03,6,Snow,266
2014-1-19,34,23,11,26,18,7,84,74,63,29.83,29.63,29.52,10,10,8,26,13,35,0.00,5,,249
2014-1-20,33,20,6,26,13,-4,88,76,64,30.19,29.94,29.60,10,5,2,23,13,29,0.01,8,Snow,2
2014-1-21,10,5,0,-6,-8,-9,69,60,50,30.35,30.29,30.20,10,10,8,24,11,33,T,3,,314
2014-1-22,14,7,0,4,-2,-11,79,69,59,30.18,29.99,29.84,10,6,0,23,12,37,0.02,6,Snow,263
2014-1-23,11,4,-4,-3,-7,-12,79,68,57,30.59,30.46,30.20,10,9,2,23,14,31,T,2,Snow,290
2014-1-24,28,11,-7,24,8,-15,84,69,53,30.47,29.76,29.38,10,6,1,37,20,48,0.04,7,Snow,232
2014-1-25,30,18,5,26,3,-9,92,67,42,29.86,29.62,29.36,10,9,2,28,15,38,0.04,3,Snow,295
2014-1-26,26,16,5,18,7,-5,88,74,60,29.79,29.54,29.37,10,4,0,31,12,46,0.13,8,Snow,244
2014-1-27,6,-1,-8,-5,-16,-19,69,57,45,30.42,30.23,29.84,10,10,9,28,17,35,0.00,1,,291
2014-1-28,2,-5,-12,-11,-15,-19,70,61,51,30.42,30.33,30.20,10,10,10,21,13,28,0.00,0,,256
2014-1-29,22,10,-2,6,-2,-11,71,57,43,30.20,30.11,29.94,10,10,10,21,13,30,0.00,2,,230
2014-1-30,31,26,21,27,18,6,92,71,50,29.91,29.72,29.58,10,7,0,29,17,36,0.01,7,Fog-Snow,220
2014-1-31,21,16,10,13,4,-1,73,62,51,30.17,30.12,29.95,10,10,10,17,7,23,0.00,6,,275